Voltar ao catálogo

COSMOS 1323

AtivoNavegaçãoLEO
NORAD 12978·PAYLOAD·🇷🇺 Russia

Lançado Nov 28, 1981 de Plesetsk Cosmodrome

Loading…

Próximas Passagens (próximas 24 horas)

TLE

AtualizadoSource: Space-Track

Época: Sep 14, 2026, 09:13 UTC

1 12978U 81116D   26257.38405525 -.00000024  00000-0 -79456-4 0  9991
2 12978  73.9786 260.4163 0089156  99.0189 328.8620 12.29208575 10029

Acompanhe COSMOS 1323 em tempo real com AllMySat

Download on the App Store